Wind_Speed
23 21 19 19 19 19 19 20 20 19 19 20 22 23 22 23 22 23 23 22 22 22 21 21 21 21 21 21 21 22 22 23 23 23 23 23 23 24 24 24 24 24 24 24
25 23 23 22 21 21 20 20 21 22 23 24 26 26 26 26 24 23 24 24 24 23 22 21 21 21 22 22 22 22 23 23 23 23 24 25 25 25 25 26 25 25 25 25
25 23 23 23 21 22 21 22 23 24 26 27 28 28 28 28 26 25 25 26 25 24 23 23 23 23 23 23 23 23 24 24 25 25 25 26 27 27 27 27 27 27 27 27
25 24 25 24 24 24 24 24 25 26 28 28 28 30 30 29 27 26 26 26 25 25 24 24 24 25 24 24 25 25 26 26 26 27 27 28 28 29 29 29 29 29 29 29
26 26 27 25 24 24 24 25 26 27 29 30 30 30 29 27 27 27 27 26 25 25 25 25 25 26 26 25 26 26 27 27 28 28 29 29 30 30 30 30 30 31 31 31
27 27 26 26 25 25 26 28 29 30 30 30 30 31 29 28 28 28 27 25 26 26 26 26 26 26 26 26 26 27 28 29 29 29 30 30 30 31 31 32 32 32 33 33
29 28 27 27 25 26 27 30 31 31 30 30 29 30 29 29 29 29 27 26 26 26 27 27 27 26 27 28 28 29 30 30 31 31 30 31 31 32 32 33 33 33 33 33
28 28 29 29 27 28 29 30 30 31 31 30 29 28 29 29 29 29 29 28 28 27 27 27 27 28 28 29 29 29 30 30 31 31 31 31 31 32 32 33 33 33 34 34
29 30 30 31 30 31 31 31 30 31 31 31 30 30 30 30 30 30 30 30 30 29 29 28 29 29 29 29 30 30 31 31 31 31 31 31 32 32 32 33 33 33 34 34
31 31 32 31 31 32 32 31 31 32 31 31 31 31 31 31 31 31 31 31 31 30 30 30 30 30 30 29 30 31 31 31 31 31 31 32 33 33 33 34 34 34 34 35
32 33 33 33 31 31 32 32 33 33 33 33 32 32 32 31 31 31 31 32 31 31 31 31 31 31 31 31 31 32 33 32 31 31 32 32 33 34 35 35 35 35 35 35
33 34 34 33 32 32 32 32 33 34 34 33 33 33 31 32 32 32 32 31 31 31 31 31 31 32 32 33 33 33 32 31 31 31 32 33 34 34 34 34 35 35 35 34
35 33 34 34 32 32 32 32 33 34 34 33 32 33 32 32 32 32 31 31 31 31 31 32 31 32 32 32 32 32 32 31 32 32 33 34 34 34 34 34 34 34 34 34
34 33 33 33 33 33 32 32 32 32 32 32 32 33 32 31 30 30 29 29 30 30 31 31 31 31 32 32 32 32 32 32 32 32 32 34 34 34 34 34 34 33 32 32
34 33 32 32 32 32 32 32 32 32 31 31 31 31 31 30 29 28 28 29 29 30 30 31 31 31 31 32 32 32 32 32 32 32 33 33 34 34 34 34 33 32 31 31
32 32 32 31 31 30 30 31 31 31 30 30 30 30 29 29 29 28 28 28 28 29 29 30 30 31 31 31 31 31 32 31 32 33 32 32 33 33 32 32 32 31 31 31
32 31 30 29 29 30 29 29 30 29 29 29 29 29 28 28 28 28 28 29 29 29 30 31 31 32 31 31 31 31 31 31 32 32 32 32 32 31 31 31 30 30 30 30
30 29 29 28 27 28 29 29 29 29 29 30 29 28 28 28 29 29 29 29 29 30 30 30 30 30 30 30 30 30 30 31 31 31 31 31 30 30 30 30 30 30 29 29
29 28 28 27 27 27 28 28 28 28 28 29 29 29 28 28 28 28 28 28 29 29 29 29 29 29 30 30 30 30 30 30 30 30 31 31 30 30 30 30 30 30 29 29
28 28 28 27 26 27 26 25 25 26 27 28 28 27 27 27 27 27 27 27 28 28 28 29 29 29 30 30 31 31 30 30 31 30 30 30 30 30 29 29 28 28 28 28
26 27 26 25 25 24 25 25 24 25 25 26 26 26 26 26 26 26 26 27 27 27 28 28 28 29 29 30 30 30 31 31 30 29 29 29 29 29 28 28 28 28 29 29
25 25 24 24 24 23 23 23 23 24 24 24 24 25 25 25 25 25 26 27 27 27 28 28 29 29 28 28 28 29 28 28 29 29 28 28 28 28 28 28 28 29 29 29
24 24 25 25 24 24 23 23 24 23 23 23 23 23 24 24 24 25 25 26 26 26 27 27 27 27 27 28 28 27 28 28 28 28 28 29 29 29 29 29 29 29 29 29
23 23 23 23 23 24 23 23 23 23 23 23 23 24 24 24 24 24 24 25 25 25 25 26 27 27 27 28 28 27 27 28 28 28 28 29 29 29 29 29 30 29 29 29
21 21 21 22 22 22 22 22 23 23 23 23 24 24 23 24 24 24 24 24 25 25 25 26 26 26 26 27 26 26 27 27 27 28 28 28 28 28 28 28 29 29 28 27
19 20 20 21 21 21 22 22 22 22 23 23 23 23 23 24 24 24 24 24 24 24 24 24 25 25 25 25 26 25 25 26 27 27 27 28 27 27 27 27 27 27 26 26
17 18 18 19 19 20 20 20 21 21 22 22 22 22 22 23 23 23 22 22 22 22 22 23 24 24 24 24 25 25 25 25 26 26 26 26 27 27 27 27 27 26 26 26
Wind_Direction
235 233 239 249 255 253 250 250 254 258 265 273 277 281 282 282 284 287 288 289 290 291 291 291 291 292 293 294 296 297 297 297 296 295 296 296 295 295 297 296 295 295 295 294
238 238 238 244 251 251 249 253 255 261 262 264 271 276 279 281 283 285 286 287 289 289 289 289 289 291 292 292 294 295 296 296 297 297 297 297 296 296 295 295 293 293 294 295
242 243 244 243 245 251 251 253 256 259 262 264 270 273 277 279 281 282 282 283 287 287 287 287 287 289 292 293 292 293 293 294 296 296 296 296 295 295 294 294 294 293 292 295
246 244 245 244 244 247 250 254 255 257 258 261 268 273 275 277 279 280 280 282 284 285 286 286 286 288 290 291 291 291 292 293 295 295 295 296 296 294 293 293 293 293 293 294
247 248 250 249 248 250 252 255 255 258 260 264 266 271 273 276 279 281 280 280 282 284 285 286 287 288 289 289 291 292 292 293 294 294 294 295 295 294 293 292 291 291 292 292
246 248 250 251 250 252 255 257 257 259 262 265 267 269 271 273 276 278 277 278 281 283 284 284 286 287 288 289 291 292 293 293 293 294 294 294 294 294 292 291 291 291 291 291
248 249 249 248 250 254 254 256 260 263 265 265 267 269 272 274 275 276 278 280 282 283 284 284 286 286 288 291 291 292 293 293 293 293 293 294 294 293 293 292 292 292 292 292
248 248 247 248 248 252 256 259 261 264 265 266 267 270 272 273 274 275 276 279 281 283 284 285 285 285 287 290 292 293 293 293 292 293 293 293 294 294 294 293 291 291 292 292
248 246 247 248 248 252 255 258 260 263 263 265 267 269 270 271 273 274 276 278 280 282 283 282 284 286 286 288 290 292 293 293 293 293 293 294 295 295 294 294 292 292 292 291
245 247 248 249 249 252 255 257 259 261 263 267 269 269 269 271 274 274 275 277 278 280 281 283 285 286 287 287 288 290 292 292 293 294 293 293 294 295 295 295 293 293 293 293
246 247 247 249 251 253 255 257 260 263 266 268 269 269 269 271 274 275 275 275 276 278 280 283 284 286 287 288 290 291 292 291 292 294 294 294 295 295 295 295 294 293 293 293
246 248 250 252 253 255 257 259 262 263 265 267 268 270 271 272 274 274 274 275 276 278 280 282 284 285 288 289 291 293 293 293 294 295 295 295 295 295 294 294 294 294 294 293
250 253 253 254 257 258 259 260 262 262 263 266 268 269 273 274 274 273 274 275 277 279 281 281 284 286 288 290 291 292 293 293 293 295 295 296 296 296 295 294 295 295 294 294
252 257 258 259 260 259 261 262 263 264 265 267 268 270 272 273 273 274 274 275 275 278 279 281 283 286 289 291 292 291 292 293 294 294 295 296 297 297 296 296 296 295 295 295
254 257 259 260 261 261 262 263 264 265 267 268 267 269 271 272 273 274 275 277 278 279 280 282 283 285 287 289 290 291 292 292 294 295 295 296 297 297 297 297 296 296 296 296
253 256 259 261 261 261 261 263 264 265 266 268 268 268 269 271 271 272 275 277 279 280 282 283 284 286 288 289 290 291 291 292 292 294 295 296 296 297 298 299 298 298 297 297
252 254 256 259 259 260 261 262 263 264 265 266 267 266 268 270 271 273 275 277 279 281 283 285 286 287 288 289 289 290 291 291 291 292 293 295 297 298 299 300 299 299 297 297
251 252 255 257 260 260 260 261 263 264 264 265 267 269 268 269 271 273 275 277 279 282 284 286 288 287 287 288 288 290 290 291 293 294 296 297 297 298 298 299 299 298 297 298
249 252 255 258 260 261 262 264 265 266 267 269 270 269 270 272 273 276 277 279 281 283 285 287 288 288 289 290 290 290 293 295 296 295 296 296 297 298 299 298 298 297 296 298
250 252 254 257 259 259 261 266 267 267 267 268 269 270 271 273 275 276 276 279 282 284 286 287 287 288 289 291 292 293 294 295 295 295 295 296 296 296 297 298 298 298 298 298
250 251 253 254 257 259 260 263 266 267 268 270 271 272 274 275 275 277 279 281 284 285 286 287 288 289 291 292 293 293 294 294 295 296 296 296 297 297 297 299 300 300 298 297
250 250 252 254 257 260 262 262 264 267 269 271 272 275 276 275 277 280 282 283 285 286 286 287 289 290 292 293 294 294 294 295 297 298 298 300 301 302 302 301 301 300 299 298
250 252 253 256 259 262 264 264 264 266 269 271 274 276 278 278 279 281 283 285 287 289 289 290 291 293 294 295 295 294 294 294 296 298 299 300 300 300 301 301 301 299 298 299
252 253 254 256 259 262 264 264 265 267 270 271 274 278 279 280 281 282 284 286 288 289 290 291 292 293 293 292 293 294 294 295 296 298 299 300 301 301 300 300 300 300 301 301
252 254 256 258 259 260 263 265 267 269 269 273 276 277 279 281 282 282 284 286 287 288 291 293 294 295 295 294 294 294 295 297 299 300 301 302 303 304 303 302 302 302 302 301
251 252 255 258 260 261 265 267 268 268 270 273 275 277 280 282 282 283 284 285 286 289 291 294 296 297 298 298 297 298 298 299 300 301 302 302 303 304 304 304 304 303 302 302
250 253 254 257 260 263 266 268 270 271 273 274 276 279 282 283 283 284 284 285 287 288 292 295 298 298 299 300 300 301 302 301 300 301 302 303 304 306 306 305 304 304 304 302
Height
5873 5876 5878 5880 5882 5883 5884 5884 5885 5885 5883 5882 5881 5880 5879 5878 5877 5876 5875 5875 5873 5872 5871 5870 5869 5868 5867 5865 5864 5863 5861 5859 5858 5857 5855 5854 5852 5850 5849 5847 5845 5844 5842 5841
5866 5870 5872 5874 5876 5877 5878 5879 5880 5879 5878 5876 5875 5875 5874 5873 5872 5871 5870 5870 5869 5867 5866 5865 5864 5863 5862 5860 5859 5858 5856 5854 5853 5851 5850 5848 5846 5845 5843 5841 5840 5838 5836 5834
5860 5863 5865 5867 5870 5871 5872 5873 5874 5873 5872 5871 5869 5869 5868 5867 5866 5865 5865 5864 5863 5862 5861 5860 5859 5857 5856 5855 5854 5852 5851 5849 5847 5846 5844 5842 5840 5838 5837 5835 5833 5831 5829 5827
5853 5856 5858 5863 5864 5864 5865 5866 5866 5865 5864 5864 5863 5862 5862 5861 5860 5859 5859 5858 5857 5856 5855 5854 5852 5851 5850 5849 5848 5846 5845 5843 5841 5839 5837 5835 5833 5831 5829 5827 5826 5824 5822 5820
5846 5849 5851 5855 5856 5856 5858 5858 5858 5857 5857 5857 5856 5855 5855 5854 5853 5853 5853 5852 5851 5850 5848 5847 5846 5845 5844 5843 5841 5840 5838 5836 5834 5832 5830 5828 5826 5823 5821 5819 5818 5816 5814 5812
5839 5841 5844 5847 5848 5849 5851 5849 5849 5849 5849 5850 5849 5849 5848 5848 5847 5846 5845 5844 5844 5843 5842 5841 5840 5838 5837 5836 5834 5833 5831 5829 5827 5824 5822 5820 5818 5815 5813 5811 5809 5807 5805 5803
5831 5833 5836 5838 5839 5841 5844 5842 5841 5841 5842 5842 5842 5841 5841 5841 5840 5839 5838 5838 5838 5837 5836 5834 5833 5832 5830 5829 5827 5825 5823 5821 5819 5816 5814 5812 5809 5807 5804 5802 5800 5798 5796 5794
5824 5826 5830 5829 5831 5833 5834 5834 5834 5834 5834 5834 5834 5834 5834 5833 5833 5833 5832 5832 5831 5830 5829 5828 5826 5825 5823 5821 5819 5817 5815 5813 5810 5808 5805 5803 5801 5798 5795 5792 5790 5788 5786 5785
5816 5819 5819 5820 5821 5823 5824 5825 5826 5826 5826 5826 5827 5827 5826 5826 5826 5825 5825 5824 5823 5823 5822 5820 5819 5817 5816 5814 5812 5809 5807 5805 5802 5799 5797 5794 5792 5789 5786 5783 5781 5779 5777 5775
5807 5809 5810 5811 5812 5813 5815 5816 5817 5818 5818 5818 5818 5818 5818 5818 5818 5817 5817 5816 5815 5815 5814 5812 5811 5809 5807 5806 5803 5801 5798 5796 5793 5791 5788 5786 5783 5780 5778 5775 5772 5770 5768 5766
5799 5800 5801 5802 5803 5805 5807 5808 5809 5810 5810 5810 5810 5810 5810 5810 5809 5809 5808 5808 5807 5807 5806 5804 5803 5801 5799 5797 5795 5793 5790 5787 5785 5782 5780 5777 5774 5772 5769 5766 5763 5761 5758 5756
5790 5790 5792 5793 5795 5797 5799 5800 5801 5801 5802 5802 5802 5801 5800 5801 5801 5800 5800 5799 5799 5798 5797 5796 5794 5792 5791 5788 5786 5784 5781 5779 5776 5774 5771 5769 5766 5763 5760 5757 5755 5752 5749 5746
5780 5781 5783 5786 5787 5789 5790 5791 5791 5792 5792 5793 5793 5793 5791 5792 5792 5791 5791 5791 5790 5789 5788 5787 5786 5784 5782 5780 5778 5775 5773 5770 5768 5765 5762 5760 5757 5754 5751 5748 5745 5743 5740 5737
5772 5774 5776 5778 5780 5780 5781 5782 5782 5783 5784 5784 5785 5784 5784 5784 5783 5783 5782 5782 5782 5781 5780 5778 5777 5775 5773 5771 5769 5767 5764 5762 5759 5756 5753 5751 5748 5745 5742 5739 5737 5734 5731 5728
5766 5767 5769 5770 5771 5772 5773 5773 5773 5774 5775 5775 5775 5775 5776 5775 5775 5775 5774 5774 5773 5772 5771 5770 5768 5766 5764 5762 5760 5758 5756 5753 5750 5748 5745 5742 5739 5736 5732 5729 5727 5725 5722 5720
5758 5759 5760 5762 5763 5764 5765 5765 5765 5765 5766 5766 5766 5767 5767 5767 5767 5767 5766 5766 5765 5764 5762 5761 5760 5758 5756 5753 5751 5749 5747 5744 5741 5738 5736 5733 5730 5727 5724 5721 5718 5716 5713 5711
5749 5750 5752 5753 5755 5756 5756 5757 5757 5756 5757 5758 5758 5758 5758 5758 5758 5758 5758 5757 5756 5755 5754 5753 5751 5749 5747 5744 5742 5740 5738 5735 5733 5730 5727 5724 5721 5718 5715 5713 5710 5707 5705 5702
5740 5742 5744 5745 5746 5747 5748 5749 5749 5749 5749 5749 5750 5750 5750 5750 5750 5750 5750 5749 5748 5747 5745 5744 5742 5740 5738 5736 5733 5731 5729 5726 5724 5721 5719 5716 5713 5710 5707 5704 5702 5699 5696 5694
5732 5734 5736 5738 5739 5740 5741 5741 5742 5742 5742 5741 5742 5742 5742 5742 5742 5742 5742 5741 5740 5739 5737 5735 5733 5731 5729 5727 5725 5722 5720 5717 5715 5713 5710 5707 5704 5702 5699 5696 5693 5690 5687 5685
5725 5727 5729 5730 5732 5733 5733 5733 5734 5734 5734 5734 5734 5734 5735 5734 5734 5734 5733 5732 5731 5730 5728 5726 5724 5723 5721 5719 5717 5714 5711 5709 5707 5704 5701 5699 5696 5693 5690 5687 5684 5681 5679 5676
5718 5719 5721 5723 5724 5725 5725 5726 5727 5727 5727 5727 5727 5727 5726 5726 5726 5725 5725 5724 5723 5722 5720 5718 5716 5715 5713 5710 5708 5706 5703 5701 5698 5696 5693 5690 5687 5684 5681 5678 5675 5673 5670 5668
5710 5712 5714 5715 5716 5717 5718 5719 5720 5720 5720 5720 5720 5719 5719 5718 5718 5717 5717 5716 5715 5714 5712 5710 5709 5707 5704 5702 5700 5697 5695 5692 5690 5687 5684 5681 5679 5676 5673 5670 5667 5664 5661 5659
5704 5706 5707 5709 5710 5711 5711 5712 5713 5713 5713 5713 5713 5712 5712 5711 5710 5709 5709 5708 5707 5706 5704 5702 5701 5699 5696 5694 5692 5689 5687 5684 5682 5679 5676 5673 5671 5668 5665 5662 5659 5655 5653 5650
5698 5699 5701 5702 5704 5704 5705 5705 5706 5706 5706 5706 5706 5705 5704 5703 5703 5702 5701 5700 5699 5698 5696 5694 5693 5691 5688 5686 5684 5681 5679 5676 5674 5671 5668 5665 5662 5660 5657 5654 5650 5647 5644 5641
5691 5693 5694 5696 5697 5698 5698 5699 5699 5699 5699 5699 5699 5698 5697 5696 5696 5695 5694 5693 5691 5690 5689 5687 5685 5683 5680 5678 5675 5673 5671 5668 5666 5663 5660 5657 5654 5652 5649 5646 5643 5639 5636 5634
5686 5687 5689 5690 5691 5691 5692 5692 5692 5692 5692 5692 5691 5691 5690 5689 5688 5687 5686 5685 5684 5683 5681 5680 5678 5675 5673 5670 5668 5665 5662 5660 5658 5655 5652 5650 5647 5644 5641 5638 5634 5631 5628 5626
5681 5682 5683 5684 5685 5685 5685 5685 5685 5685 5685 5685 5684 5683 5683 5682 5681 5680 5679 5678 5677 5676 5674 5673 5671 5668 5666 5663 5661 5658 5655 5652 5650 5647 5645 5642 5639 5636 5633 5630 5627 5623 5621 5618